Flag for Chad Weather past 2 weeks in Ndjamena, Chad

Now
66 °F

Mild.


Feels Like: 66 °F
Forecast: 58 / 87 °F
Wind: 6 mph from Northeast

Location: Ndjamena

Current Time: Dec 21, 2014 at 3:21:26 AM

Latest Report: Dec 21, 2014 at 3:00 AM


Visibility: 4 mi

Pressure: 29.92 "Hg

Humidity: 46%

Dew point: 45 °F

Location of NdjamenaLocation

Historic Weather in Ndjamena — Graph

°F

Ndjamena temperature yesterday

Maximum temperature yesterday: 91 °F (at 2:00 PM)
Minimum temperature yesterday: 61 °F (at 4:00 AM)
Average temperature yesterday: 76 °F

Past Weeks' High & Low Weather Summary

 TemperatureHumidityPressure
High99 °F (Dec 7, 2:00 PM)77% (Dec 10, 4:00 AM)30.01 "Hg (Dec 10, 4:00 AM)
Low55 °F (Dec 19, 5:00 AM)19% (Dec 6, 7:00 PM)29.74 "Hg (Dec 10, 4:00 PM)
Average78 °F38%29.89 "Hg
* Reported Dec 6 1:00 AM — Dec 21 1:00 AM, Ndjamena, Weather by CustomWeather, © 2014

Note: Actual official high and low records may vary slightly from our data, if they occured in-between our weather recording intervals... More about our weather records

Advertising

Ndjamena weather history for previous 24 hours

 ConditionsComfort  
Time TempWeatherWind HumidityBarometerVisibility
1:00 AM
Dec 21
70 °FClear.7 mph40%29.95 "Hg10 mi
12:00 AM73 °FClear.8 mph38%29.92 "Hg10 mi
11:00 PM
Dec 20
73 °FClear.7 mph38%29.98 "Hg10 mi
10:00 PM75 °FClear.7 mph36%29.98 "Hg10 mi
9:00 PM77 °FClear.5 mph34%29.95 "Hg10 mi
8:00 PM73 °FHaze.2 mph38%29.95 "Hg2 mi
7:00 PM79 °FHaze.5 mph32%29.92 "Hg2 mi
6:00 PM82 °FHaze.7 mph28%29.89 "Hg2 mi
5:00 PM88 °FSunny.12 mph24%29.86 "Hg10 mi
4:00 PM91 °FSunny.14 mph23%29.86 "Hg10 mi
3:00 PM91 °FSunny.14 mph23%29.86 "Hg10 mi
2:00 PM91 °FPassing clouds.10 mph23%29.89 "HgN/A
1:00 PM90 °FPassing clouds.12 mph26%29.92 "HgN/A
12:00 PM88 °FPassing clouds.13 mph27%29.95 "HgN/A
11:00 AM84 °FPassing clouds.10 mph31%29.98 "HgN/A
10:00 AM81 °FSunny.9 mph32%30.01 "Hg10 mi
9:00 AM75 °FSunny.14 mph39%30.01 "Hg10 mi
8:00 AM70 °FSunny.9 mph43%30.01 "Hg10 mi
7:00 AM63 °FSunny.9 mph52%29.98 "Hg10 mi
6:00 AM63 °FClear.9 mph49%29.95 "Hg10 mi
5:00 AM61 °FClear.10 mph48%29.95 "Hg10 mi
4:00 AM61 °FClear.9 mph48%29.92 "Hg10 mi
3:00 AM63 °FClear.12 mph49%29.92 "Hg10 mi
Weather by CustomWeather, © 2014

See weather overviewHow to use our weather pages